Lapse_Rate
4.7 4.2 4.1 4.9 5.0 4.6 4.5 4.2 4.1 4.3 4.8 4.8 4.6 4.8 5.1 5.7 6.2 6.3 6.8 7.2 6.8 6.6 6.4 6.5 6.5 6.6 6.7 6.7 6.9 7.0 7.1 7.1 7.1 7.1 7.1 7.0 6.8 6.6 6.4 6.3 6.1 5.9 5.9 5.9
3.9 3.5 4.5 5.3 5.0 4.5 4.4 4.3 4.3 4.6 4.9 4.7 4.9 4.4 4.6 5.6 5.8 6.1 6.7 6.9 6.7 6.7 6.4 6.6 6.7 6.7 6.7 6.8 6.9 7.0 7.0 7.0 7.0 7.0 6.9 6.8 6.7 6.5 6.4 6.1 5.8 5.7 5.7 5.5
3.9 4.4 4.9 5.0 5.0 4.4 4.5 4.3 4.5 4.4 5.6 5.4 5.1 4.7 5.1 6.0 6.2 6.1 6.4 6.8 6.7 6.6 6.4 6.6 6.8 6.8 6.7 6.7 6.7 6.8 6.8 6.9 6.9 6.9 6.9 6.7 6.5 6.3 6.2 5.8 5.6 5.5 5.3 5.3
3.7 4.4 4.6 5.3 4.9 5.5 4.7 5.6 5.3 5.2 5.0 4.7 5.8 4.7 5.4 5.9 5.9 6.0 6.9 6.6 6.8 6.6 6.4 6.5 6.7 6.7 6.6 6.7 6.7 6.7 6.8 6.9 6.9 6.8 6.6 6.4 6.2 6.1 5.8 5.7 5.5 5.3 5.2 5.2
4.5 5.1 5.4 5.1 6.1 5.8 5.3 5.9 5.8 5.5 5.4 5.2 5.6 4.8 4.5 5.9 5.4 6.0 6.9 6.8 6.9 6.8 6.6 6.6 6.8 6.5 6.5 6.6 6.7 6.6 6.7 6.7 6.5 6.4 6.3 6.2 6.0 5.8 5.6 5.5 5.3 5.2 5.2 5.1
5.2 5.1 5.3 5.7 6.4 6.1 5.8 5.7 5.9 5.9 5.8 5.6 5.4 5.6 4.8 5.9 6.2 6.8 6.9 7.1 7.1 6.9 6.6 6.5 6.6 6.4 6.5 6.6 6.6 6.5 6.5 6.5 6.4 6.3 6.2 6.0 5.8 5.6 5.5 5.4 5.2 5.1 5.1 5.1
5.8 5.7 5.8 6.1 5.9 6.0 5.9 5.8 6.1 5.9 5.5 4.8 6.0 6.1 4.9 6.0 7.1 6.9 7.4 7.5 7.3 6.9 6.8 6.5 6.7 6.6 6.6 6.6 6.6 6.5 6.4 6.3 6.2 6.1 5.9 5.8 5.6 5.5 5.4 5.4 5.3 5.3 5.2 5.3
6.6 6.4 6.4 6.4 6.4 6.5 6.5 6.4 6.3 5.7 5.5 5.8 6.4 6.2 5.4 6.5 7.5 7.1 7.0 7.2 7.5 7.3 6.6 6.7 6.8 6.7 6.5 6.5 6.6 6.4 6.2 6.0 5.9 5.8 5.7 5.6 5.5 5.5 5.5 5.4 5.4 5.3 5.5 5.6
6.5 6.5 6.7 6.9 7.1 7.0 6.4 6.5 6.8 6.6 6.9 6.8 7.2 6.6 6.5 6.8 7.9 7.9 7.2 7.6 7.8 7.5 6.8 6.7 6.8 6.6 6.4 6.5 6.4 6.2 6.0 5.7 5.6 5.6 5.6 5.7 5.6 5.5 5.4 5.4 5.4 5.5 5.7 5.6
6.6 6.6 7.3 7.1 6.8 6.7 6.5 7.0 6.8 6.8 6.1 6.7 6.6 6.7 7.1 7.6 7.9 7.9 7.9 7.9 7.8 7.4 6.9 6.7 6.5 6.4 6.4 6.3 6.3 6.0 5.8 5.6 5.5 5.7 5.7 5.7 5.6 5.6 5.5 5.6 5.7 5.8 5.7 5.6
6.7 6.3 6.7 6.4 6.5 6.9 6.6 6.6 6.5 6.9 7.4 6.5 6.6 7.0 7.4 7.6 8.2 8.0 7.9 8.0 7.7 7.3 6.9 6.9 6.7 6.3 6.2 6.2 6.1 5.9 5.8 5.7 5.6 5.7 5.8 5.7 5.7 5.7 5.7 5.9 6.0 5.8 5.6 5.4
6.3 5.8 5.9 6.4 6.2 6.2 6.3 6.4 6.6 7.0 7.2 6.8 6.0 6.2 7.6 7.7 8.2 8.0 8.1 8.2 7.6 7.1 6.9 6.6 6.3 6.2 6.3 6.2 6.1 6.0 5.8 5.7 5.8 5.8 5.8 5.8 5.8 5.9 6.1 6.2 5.9 5.7 5.4 5.4
5.9 5.7 5.6 6.2 5.8 5.5 5.7 6.4 6.2 7.1 7.4 6.1 5.7 6.3 7.7 8.1 7.4 7.8 7.8 7.6 7.3 7.0 6.6 6.4 6.4 6.6 6.5 6.3 6.1 6.0 5.9 5.9 5.9 5.9 5.9 5.9 6.0 6.2 6.2 6.0 5.7 5.5 5.4 5.4
5.9 5.2 5.5 5.6 6.3 6.3 5.8 6.1 6.5 6.0 5.5 5.4 4.7 5.7 7.9 7.6 7.5 7.5 7.1 7.1 6.9 6.6 6.7 6.7 6.7 6.6 6.4 6.2 6.1 6.0 6.1 6.0 6.0 6.0 5.9 6.0 6.1 6.2 6.0 5.7 5.6 5.5 5.5 5.5
5.2 5.0 5.3 5.3 5.5 5.6 5.8 6.6 6.1 5.6 5.5 5.3 5.5 6.6 7.8 7.8 7.9 7.7 7.6 7.1 6.9 7.0 7.0 6.8 6.6 6.4 6.3 6.2 6.1 6.1 6.1 6.0 6.0 6.0 6.0 6.0 6.1 6.0 5.7 5.6 5.7 5.6 5.6 5.4
5.0 5.0 5.0 5.2 6.0 5.7 5.6 5.7 5.3 5.4 5.1 5.3 5.6 7.3 7.6 7.7 7.5 7.6 7.7 7.5 7.4 7.3 7.0 6.7 6.5 6.3 6.3 6.3 6.2 6.2 6.2 6.0 5.9 5.9 6.0 6.0 6.0 5.8 5.8 5.8 5.6 5.4 5.4 5.4
5.1 4.9 5.3 5.5 5.8 6.0 6.0 5.5 5.4 5.3 5.4 5.3 5.9 7.1 7.5 7.6 7.6 7.5 7.4 7.3 7.4 7.2 7.1 7.1 6.8 6.5 6.4 6.4 6.3 6.1 5.9 5.9 5.9 5.9 6.0 6.0 5.9 5.9 5.9 5.6 5.5 5.4 5.2 5.1
5.6 5.1 5.3 5.7 5.8 6.1 6.8 6.4 6.4 6.4 6.3 6.4 6.9 7.1 7.0 7.1 7.3 7.2 7.1 7.2 7.2 7.1 7.1 7.0 6.8 6.6 6.5 6.3 6.1 6.0 6.0 5.9 5.9 6.0 6.0 6.0 5.9 5.7 5.4 5.4 5.3 5.2 5.0 4.8
5.3 5.2 5.6 5.9 6.1 6.9 7.1 7.0 6.9 6.9 7.0 6.9 6.7 6.9 7.0 7.1 7.1 7.1 7.1 7.1 6.9 6.7 6.6 6.6 6.5 6.4 6.3 6.1 5.9 5.8 5.8 5.9 6.1 6.0 6.0 5.9 5.6 5.4 5.3 5.2 5.1 5.0 4.7 4.6
5.5 5.3 5.4 5.8 5.7 6.1 6.8 7.0 6.9 6.9 6.7 7.1 7.0 6.9 6.8 7.0 6.9 7.2 7.0 6.8 6.7 6.5 6.4 6.2 6.2 6.3 6.1 5.9 5.8 5.8 5.9 5.9 5.8 5.9 5.9 5.6 5.4 5.3 5.1 5.1 4.8 4.7 4.7 4.7
5.4 5.3 5.4 5.5 5.7 6.6 6.9 6.8 6.9 7.0 7.0 7.1 7.1 7.0 6.7 7.0 7.0 6.7 6.7 6.6 6.5 6.2 6.1 6.1 6.0 5.8 5.8 5.8 5.8 5.8 5.8 5.8 5.8 5.7 5.5 5.3 5.1 5.1 4.9 4.7 4.7 4.7 4.6 4.5
5.5 5.4 5.6 5.7 5.8 5.7 6.8 7.0 7.2 7.1 7.1 7.2 7.4 7.2 7.0 6.8 6.8 6.7 6.6 6.6 6.4 6.3 6.2 5.9 5.9 5.8 5.8 5.8 5.8 5.7 5.8 5.7 5.5 5.3 5.2 5.1 5.0 4.9 4.7 4.6 4.5 4.5 4.4 4.1
5.8 5.8 6.2 6.3 6.2 6.6 6.8 7.1 7.1 7.3 7.4 7.4 7.6 7.5 7.2 7.0 6.9 6.8 6.8 6.6 6.4 6.3 6.2 6.0 5.8 5.7 5.7 5.7 5.7 5.6 5.5 5.3 5.2 5.2 5.1 5.0 4.8 4.6 4.6 4.6 4.5 4.2 4.0 3.8
6.3 6.2 6.0 6.2 6.7 6.8 7.0 7.1 7.1 7.2 7.4 7.5 7.6 7.6 7.4 7.0 6.9 6.7 6.5 6.4 6.3 6.2 5.9 5.7 5.7 5.7 5.6 5.6 5.4 5.4 5.4 5.3 5.2 5.1 5.0 4.8 4.6 4.5 4.5 4.3 4.1 3.9 3.7 3.6
6.5 6.4 6.5 6.4 6.6 6.9 7.1 7.1 6.9 7.0 7.1 7.1 7.2 7.2 7.1 6.8 6.8 6.3 6.2 6.1 5.9 5.8 5.7 5.7 5.6 5.5 5.4 5.3 5.4 5.4 5.3 5.2 5.1 4.9 4.7 4.6 4.6 4.5 4.3 4.0 3.9 3.7 3.5 3.4
6.6 6.6 6.7 7.0 6.6 6.6 6.8 6.9 6.9 6.9 6.9 6.9 6.8 6.9 6.8 6.2 6.1 6.0 5.8 5.7 5.5 5.4 5.3 5.2 5.2 5.3 5.4 5.5 5.4 5.3 5.2 5.1 4.9 4.8 4.8 4.7 4.5 4.2 4.0 3.8 3.6 3.3 3.3 3.2
Wind_Speed
2 4 10 15 9 6 7 5 7 3 8 7 11 16 17 14 13 11 11 10 8 9 5 6 6 6 6 4 6 7 10 9 10 8 6 4 4 6 7 6 13 14 13 13
4 11 10 7 8 9 11 13 15 8 9 9 11 16 13 16 15 15 18 11 9 6 7 7 6 5 4 6 6 8 10 8 7 6 4 4 5 5 5 5 10 13 13 12
12 6 14 13 12 11 14 17 11 12 11 15 12 22 14 15 13 15 17 13 9 16 13 8 7 7 7 7 8 8 9 9 9 12 10 8 8 4 4 4 4 5 11 12
12 15 9 16 14 11 15 11 11 9 7 5 4 10 10 6 16 15 20 11 12 15 8 6 7 6 8 7 7 8 9 11 9 11 11 12 6 6 2 3 3 4 10 9
8 8 19 20 15 13 9 5 5 3 8 8 16 8 6 9 11 16 20 15 15 18 17 15 12 10 7 8 8 7 9 9 8 8 10 8 7 5 4 4 7 6 5 9
8 1 7 12 14 13 3 4 3 2 1 9 22 11 11 10 16 16 18 13 15 17 13 10 8 9 7 7 8 7 10 7 8 9 9 10 11 8 6 5 4 3 3 4
6 15 4 3 6 8 11 6 3 4 6 12 10 11 22 8 13 13 16 12 15 17 17 15 15 12 10 11 10 8 11 8 8 10 10 9 9 8 8 6 4 4 2 2
6 4 16 9 15 5 13 15 4 7 4 6 6 10 10 14 25 19 9 15 18 18 17 17 15 13 12 12 9 10 12 10 10 11 9 7 8 5 5 5 4 4 3 2
5 5 3 6 7 12 6 10 22 5 4 4 5 6 10 9 9 7 10 17 20 19 19 17 14 13 12 11 11 12 12 9 9 10 8 7 7 7 6 6 5 3 3 2
5 2 6 5 4 9 14 7 5 5 6 10 7 5 10 13 13 6 15 19 17 16 16 15 14 13 9 10 9 9 10 11 8 9 7 7 7 7 6 6 6 4 3 3
5 4 2 5 10 14 9 11 10 7 6 5 4 7 10 15 12 13 13 17 20 19 17 15 12 10 10 10 10 9 10 11 8 8 7 7 6 6 6 5 4 4 3 3
10 4 8 20 11 11 15 17 19 7 13 4 2 8 1 8 15 17 16 14 14 16 16 14 14 12 12 11 10 10 9 9 7 7 7 7 7 6 6 5 4 3 3 3
8 5 4 7 7 11 10 17 12 12 2 18 3 7 5 8 8 8 15 13 14 15 15 13 13 13 12 11 9 10 9 8 7 8 8 7 6 6 5 4 3 3 3 3
13 4 7 6 4 5 10 21 20 12 7 14 15 20 2 7 10 9 10 14 15 16 16 14 13 12 12 11 11 10 8 8 8 8 7 7 6 5 4 4 3 3 3 4
9 5 9 17 23 17 15 19 22 15 12 9 7 8 4 9 12 13 13 13 15 15 15 15 14 12 11 11 10 9 9 9 8 8 7 6 5 5 4 3 3 3 4 4
6 4 3 13 21 18 14 17 21 18 15 16 22 6 4 4 7 8 13 16 16 16 16 15 14 14 14 13 12 11 9 9 8 7 6 6 5 4 3 2 3 4 5 5
5 3 3 6 9 11 8 14 21 15 16 21 9 4 3 4 7 7 11 15 17 17 17 16 16 15 13 12 13 12 10 8 8 7 6 6 5 4 3 3 4 5 5 5
5 9 5 2 1 2 3 3 16 20 10 6 4 5 2 4 5 7 2 9 13 15 15 14 12 11 11 10 11 11 10 8 8 7 6 5 4 3 3 4 3 4 3 4
8 1 3 2 3 5 4 5 1 4 3 1 4 4 5 7 4 5 5 2 5 8 10 11 11 11 12 13 13 12 9 8 7 6 6 5 4 3 3 3 3 3 3 4
7 4 1 4 2 2 3 4 2 1 2 2 1 8 9 6 4 3 3 3 10 10 11 13 13 13 14 11 13 12 9 7 7 6 6 5 4 3 2 2 4 2 3 5
3 2 5 2 2 7 5 3 1 2 4 2 2 6 7 5 1 8 7 10 10 11 14 13 13 13 12 11 12 10 8 7 6 6 6 4 3 2 2 3 2 3 5 5
5 4 3 2 1 5 2 4 1 3 3 3 2 3 10 12 12 11 11 12 13 15 13 13 14 11 9 9 11 9 7 6 6 6 5 4 3 3 3 4 5 4 4 5
4 6 4 6 5 2 2 2 1 2 3 3 6 9 17 15 11 11 10 11 11 12 11 11 13 12 7 7 9 9 6 6 6 6 4 3 4 3 4 4 5 4 5 4
3 3 2 2 2 1 1 2 3 3 5 7 8 11 12 17 11 11 11 10 10 9 11 11 12 10 7 6 7 7 6 6 6 6 4 3 4 4 4 3 3 3 4 4
4 5 5 4 3 1 3 1 6 8 10 11 9 9 13 16 11 12 10 9 9 10 9 9 10 9 7 7 7 6 6 6 6 5 3 3 2 3 3 3 3 4 4 5
5 6 5 5 7 4 2 7 8 11 10 9 14 11 8 10 12 10 9 8 9 9 8 8 8 9 7 7 7 6 6 6 5 4 2 1 1 2 3 3 4 7 11 15
Wind_Direction
199 185 212 221 221 241 271 259 255 357 313 325 266 272 262 253 256 247 251 248 242 216 215 217 168 146 126 117 126 133 124 129 126 121 115 92 100 101 81 80 81 79 78 73
263 236 219 242 226 238 248 261 265 291 259 282 274 284 279 260 252 241 250 239 213 170 192 199 155 134 140 128 113 105 115 115 114 113 101 106 115 85 94 84 74 77 75 71
221 212 227 220 225 223 240 242 254 263 293 284 282 282 265 258 254 247 247 239 192 182 185 183 159 143 131 126 128 117 117 113 111 112 108 100 95 80 74 64 71 60 77 72
243 230 259 211 224 214 243 207 238 259 276 259 46 280 251 252 235 231 240 218 192 187 173 151 153 149 139 129 116 118 122 119 120 126 124 134 132 125 112 120 105 79 73 72
211 207 216 240 230 218 236 267 235 259 289 300 261 268 243 211 246 243 232 215 203 184 170 165 164 149 140 128 119 116 114 112 112 114 123 119 108 102 111 105 103 87 67 70
220 58 210 219 232 216 112 217 279 260 286 247 241 215 256 227 233 241 232 203 194 174 161 141 127 130 122 112 108 108 114 101 109 114 109 117 122 126 120 117 111 105 82 58
191 227 261 179 184 212 209 167 242 211 200 239 186 201 241 238 240 245 234 191 177 166 151 149 148 146 141 133 119 119 118 110 112 108 109 114 121 121 122 129 128 120 95 52
213 232 199 186 207 179 200 199 197 201 217 254 146 234 245 221 242 250 239 194 163 161 156 157 154 147 145 138 122 122 121 117 114 113 110 109 113 112 111 120 113 107 112 120
199 244 211 195 184 180 182 205 216 319 274 275 212 264 288 257 274 235 183 159 165 157 154 155 152 147 149 141 135 132 124 118 116 117 116 111 111 109 113 108 106 103 99 109
207 260 212 159 110 237 222 139 169 196 231 239 246 244 235 197 220 174 161 165 158 151 146 150 152 148 145 136 127 121 127 128 125 117 118 116 115 110 113 109 105 102 93 58
157 164 230 142 202 212 204 229 225 177 220 231 246 247 208 219 184 171 176 169 159 155 152 153 148 144 139 133 135 131 125 125 124 121 114 114 115 113 108 106 107 109 89 56
201 193 236 240 207 195 222 208 207 206 202 256 316 283 309 205 171 173 170 165 154 150 150 148 148 145 147 145 139 139 127 127 131 123 116 115 116 113 111 111 110 102 78 34
168 216 269 281 197 198 210 198 221 239 129 238 287 261 354 104 119 158 150 146 146 141 143 147 148 153 152 147 140 138 132 131 129 123 119 117 117 118 121 118 104 73 43 12
175 208 225 274 345 120 181 196 198 204 218 227 243 277 237 141 141 135 143 145 149 155 155 153 154 155 152 149 144 138 127 134 133 123 120 124 130 132 128 113 82 46 18 358
182 243 227 243 251 245 238 192 186 196 203 195 262 213 208 176 166 167 151 146 150 157 159 161 159 155 148 142 140 137 134 134 131 124 126 134 132 126 111 93 53 21 14 1
215 256 250 281 245 223 243 196 197 205 204 222 270 299 136 123 104 130 154 157 163 165 166 163 158 154 158 156 150 141 136 135 132 130 132 132 126 120 117 75 33 19 6 357
197 238 267 333 140 170 223 215 186 193 200 198 224 217 165 117 114 152 159 171 171 170 167 165 164 164 158 149 146 145 140 133 128 127 132 136 135 129 98 62 32 4 350 344
225 238 256 317 280 50 316 200 176 183 196 193 142 99 132 128 90 77 36 173 172 168 164 160 155 145 139 135 132 126 132 132 130 133 136 138 136 114 67 40 11 338 331 335
214 208 298 357 300 291 2 20 116 157 279 147 215 120 120 123 87 32 14 98 143 147 151 148 142 131 128 131 133 129 126 125 125 136 143 141 120 98 56 4 340 317 321 326
206 235 295 358 19 4 268 346 11 44 303 284 185 161 159 156 135 229 30 55 98 96 118 121 118 120 120 128 128 127 132 129 136 144 137 125 117 97 26 337 333 307 322 293
155 183 190 284 302 289 255 271 222 134 234 299 289 177 160 148 205 118 96 73 87 103 109 110 113 119 125 125 123 122 127 134 136 122 118 114 93 53 11 355 343 319 312 314
161 161 180 122 322 288 317 343 82 202 18 18 11 86 95 104 98 97 96 95 99 102 102 106 107 108 106 112 119 125 123 131 121 120 113 95 60 24 24 8 333 321 321 317
210 177 186 180 211 279 326 24 52 127 126 78 97 110 123 117 110 106 101 96 94 99 98 103 110 108 94 99 120 120 143 130 120 109 96 68 41 40 27 357 329 324 330 333
245 166 222 84 326 160 262 33 43 65 103 97 107 115 119 119 117 109 104 102 101 98 104 109 109 110 104 104 101 118 130 122 113 102 80 58 42 25 356 343 326 320 324 318
200 138 178 261 282 328 239 182 123 90 99 95 78 106 123 119 114 120 115 110 110 110 106 109 116 116 116 113 108 111 115 111 103 98 74 42 19 338 329 332 311 330 301 305
187 183 174 216 203 163 178 146 134 123 122 122 119 102 83 115 120 119 113 117 120 118 116 109 105 113 115 109 110 106 104 110 109 90 58 332 316 324 325 325 324 329 329 329